TOURFACTS.DK  
Stats and Facts from Tour de France.

Tour de France 2018 starts in 169 days
  Riders   Stages   Teams   Summits   Yearly  


 
Search by year

 2017 - St.21:
 14824 starters.
  5132 different riders.
  635 teams.
  2232 stages.
  454 restdays.
  439589.60 km.
  5653 abandonnees.


Top 3
GC
Christopher Froome86:20:55
Rigoberto Uran86:21:49
Romain Bardet86:23:15
Climb
Warren Barguil169 pt.
Primoz Roglic80 pt.
Thomas De Gendt64 pt.
Sprint
Michael Matthews359 pt.
André Greipel234 pt.
Edvald Boasson Hagen220 pt.
Youth
Simon Yates86:27:09
Louis Meintjes86:29:15
Emanuel Buchmann86:54:16
Facts from Tour de France 1975
  |   Stages.  |   Stage winners.  |   Days in yellow  |   Average speed.  |   Route.  |   Teams.  |   All riders.  |   Rookies.  |   Withdrawls.  |  

  |   GC.  |   Polka  |   Green  |   White  |   Summits. (In tour)  |   Summits. (Points)  |   Miscellaneous.  |  

Stage 21 on 19 - 07 - 1975
         Owning:    Bernard Thevenet    
Pick a stage:  Pro 1a 1b 2 3 4 5 6 7 8 9a 9b 10 11 12 13 14 15 16 17 18 19 20 21 22
  MelunSenlis | Dist: 220.50 km.
Cat: 4Côte de l'Catenoy/Cóte de l'EscargotESPAntonio Menendez
3 points
 

Average speed for all riders in stage:  33,280 km./hr.
    Place:Name:Team:Time:Km/h:
BELRik Van LindenITABianchi-Campagnolo06:36:51  +  00:00:00=33,338 
NEDGerben KarstensFRAGitane-Campagnolo06:36:51  +  00:00:00=33,338 
ENGBarry HobanFRAGan-Mercier-Hutchinson06:36:51  +  00:00:00=33,338 
4 ITAFrancesco MoserITAFilotex06:36:51  +  00:00:00=33,338 
5 BELKarel RottiersITAMolteni06:36:51  +  00:00:00=33,338 
6 NEDGerard VianenFRAGan-Mercier-Hutchinson06:36:51  +  00:00:00=33,338 
7 BELMarc DemeyerBELCarpenter Confortluxe-Flandria06:36:51  +  00:00:00=33,338 
8 FRARobert MintkiewiczFRAGitane-Campagnolo06:36:51  +  00:00:00=33,338 
9 ESPMariano MartinezFRAGitane-Campagnolo06:36:51  +  00:00:00=33,338 
10 PORJoaquim AgostinhoPRTSporting-Sottomayor06:36:51  +  00:00:00=33,338 
11 BELLudo DelcroixITAMolteni06:36:51  +  00:00:00=33,338 
12 FRAHubert MathisBELMiko-De Gribaldy06:36:51  +  00:00:00=33,338 
13 NEDHennie KuiperNLDFrisol-G.B.C.06:36:51  +  00:00:00=33,338 
14 BELJosé De CauwerNLDFrisol-G.B.C.06:36:51  +  00:00:00=33,338 
15 DENOle RitterITAFilotex06:36:51  +  00:00:00=33,338 
16 BELAlbert Van VlierbergheBELMiko-De Gribaldy06:36:51  +  00:00:00=33,338 
17 ITAMauro SimonettiITAFilotex06:36:51  +  00:00:00=33,338 
18 ITARenato MarchettiITAFilotex06:36:51  +  00:00:00=33,338 
19 FRASerge ParsaniITABianchi-Campagnolo06:36:51  +  00:00:00=33,338 
20 FRARoger LegeayFRAJobo-Wolber06:36:51  +  00:00:00=33,338 
21 ITASigfrido FontanelliITAFilotex06:36:51  +  00:00:00=33,338 
22 FRAMaurice Le GuillouxFRAGitane-Campagnolo06:36:51  +  00:00:00=33,338 
23 BELHerman Van SpringelBELCarpenter Confortluxe-Flandria06:36:51  +  00:00:00=33,338 
24 FRAGeorges TalbourdetFRAGan-Mercier-Hutchinson06:36:51  +  00:00:00=33,338 
25 BELFrans Van VlierbergheBELMiko-De Gribaldy06:36:51  +  00:00:00=33,338 
26 BELRonald De WitteBELCarpenter Confortluxe-Flandria06:36:51  +  00:00:00=33,338 
27 ITAGiovanni CavalcantiITABianchi-Campagnolo06:36:51  +  00:00:00=33,338 
28 NEDHenk PrinsenNLDFrisol-G.B.C.06:36:51  +  00:00:00=33,338 
29 NEDGerard KamperNLDFrisol-G.B.C.06:36:51  +  00:00:00=33,338 
30 ITALuigi CastellettiITABianchi-Campagnolo06:36:51  +  00:00:00=33,338 
31 FRARichard PianaroFRAJobo-Wolber06:36:51  +  00:00:00=33,338 
32 NEDJoop ZoetemelkFRAGan-Mercier-Hutchinson06:36:51  +  00:00:00=33,338 
33 BELMichel PollentierBELCarpenter Confortluxe-Flandria06:36:51  +  00:00:00=33,338 
34 ESPVicente LopezESPKas-Kaskol06:36:51  +  00:00:00=33,338 
35 ITARoberto PoggialiITAFilotex06:36:51  +  00:00:00=33,338 
36 PORFernando FerreiraPRTSporting-Sottomayor06:36:51  +  00:00:00=33,338 
37 BELAndre DoyenBELMiko-De Gribaldy06:36:51  +  00:00:00=33,338 
38 AUSDonald AllanNLDFrisol-G.B.C.06:36:51  +  00:00:00=33,338 
39 FRAJoël MillardFRAJobo-Wolber06:36:51  +  00:00:00=33,338 
40 BELEddy MerckxITAMolteni06:36:51  +  00:00:00=33,338 
41 BELFrans MintjensITAMolteni06:37:02  +  00:00:11=33,322 
42 ESPJosé-Luis ViejoESPSuper Ser06:37:07  +  00:00:16=33,315 
43 FRARégis OvionFRAPeugeot-BP-Michelin06:37:07  +  00:00:16=33,315 
44 FRABernard ThevenetFRAPeugeot-BP-Michelin06:37:07  +  00:00:16=33,315 
45 ESPPedro TorresESPSuper Ser06:37:19  +  00:00:28=33,298 
46 BELLucien Van ImpeFRAGitane-Campagnolo06:37:19  +  00:00:28=33,298 
47 FRARaymond PoulidorFRAGan-Mercier-Hutchinson06:37:19  +  00:00:28=33,298 
48 SUIJosef FuchsITAFilotex06:37:19  +  00:00:28=33,298 
49 FRASylvain VasseurESPSuper Ser06:37:19  +  00:00:28=33,298 
50 ESPJosé CasasESPSuper Ser06:37:19  +  00:00:28=33,298 
51 ITASimone FraccaroITABianchi-Campagnolo06:37:19  +  00:00:28=33,298 
52 FRAJean-Claude MisacFRAGan-Mercier-Hutchinson06:37:19  +  00:00:28=33,298 
53 FRARegis DelepineBELCarpenter Confortluxe-Flandria06:37:19  +  00:00:28=33,298 
54 BELJos De SchoenmaeckerITAMolteni06:37:19  +  00:00:28=33,298 
55 FRAFerdinand JulienPRTSporting-Sottomayor06:37:19  +  00:00:28=33,298 
56 BELTony HoubrechtsITABianchi-Campagnolo06:37:19  +  00:00:28=33,298 
57 FRAGerard MoneyronBELCarpenter Confortluxe-Flandria06:37:19  +  00:00:28=33,298 
58 ESPAndré RomeroFRAJobo-Wolber06:37:19  +  00:00:28=33,298 
59 FRABernard BourreauFRAPeugeot-BP-Michelin06:37:19  +  00:00:28=33,298 
60 ITAFelice GimondiITABianchi-Campagnolo06:37:19  +  00:00:28=33,298 
61 FRAPatrick BeonFRAPeugeot-BP-Michelin06:37:19  +  00:00:28=33,298 
62 BELRené DillenFRAGitane-Campagnolo06:37:19  +  00:00:28=33,298 
63 FRARaymond DelisleFRAPeugeot-BP-Michelin06:37:19  +  00:00:28=33,298 
64 FRACharly RouxelFRAPeugeot-BP-Michelin06:37:19  +  00:00:28=33,298 
65 BELEduard JanssensITAMolteni06:37:19  +  00:00:28=33,298 
66 FRAYves HézardFRAGan-Mercier-Hutchinson06:37:19  +  00:00:28=33,298 
67 ESPLuis BalagueESPSuper Ser06:37:19  +  00:00:28=33,298 
68 PORJosé AmaroPRTSporting-Sottomayor06:37:19  +  00:00:28=33,298 
69 FRAClaude MagniFRAJobo-Wolber06:37:19  +  00:00:28=33,298 
70 ESPCarlos MeleroESPKas-Kaskol06:37:19  +  00:00:28=33,298 
71 FRARaymond MartinFRAGitane-Campagnolo06:37:19  +  00:00:28=33,298 
72 FRAFrancis CampanerPRTSporting-Sottomayor06:37:19  +  00:00:28=33,298 
73 BELWilly TeirlinckFRAGitane-Campagnolo06:37:35  +  00:00:44=33,276 
74 NEDFedor Iwan Den HertogNLDFrisol-G.B.C.06:37:35  +  00:00:44=33,276 
75 ESPJosé PesarrodonaESPKas-Kaskol06:37:35  +  00:00:44=33,276 
76 ESPJosé GrandeESPKas-Kaskol06:37:35  +  00:00:44=33,276 
77 ITAFabrizio FabbriITABianchi-Campagnolo06:37:35  +  00:00:44=33,276 
78 MARAntoine GutierrezBELMiko-De Gribaldy06:37:55  +  00:01:04=33,248 
79 BELJoseph SpruytITAMolteni06:37:55  +  00:01:04=33,248 
80 ITAGiacinto SantambrogioITABianchi-Campagnolo06:37:58  +  00:01:07=33,244 
81 COLMartìn RodríguezITABianchi-Campagnolo06:38:18  +  00:01:27=33,216 
82 BELMarc LievensITAMolteni06:38:51  +  00:02:00=33,170 
83 NEDGerrie KnetemannFRAGan-Mercier-Hutchinson06:38:55  +  00:02:04=33,165 
84 BELWalter GodefrootBELCarpenter Confortluxe-Flandria06:39:23  +  00:02:32=33,126 
85 BELJoseph HuysmansITAMolteni06:39:23  +  00:02:32=33,126 
86 FRAJoel HauvieuxFRAJobo-Wolber06:39:40  +  00:02:49=33,103 
87 FRAGuy LeleuFRAGitane-Campagnolo06:40:51  +  00:04:00=33,005 
88 FRAJacques BoulasFRAJobo-Wolber06:45:49  +  00:08:58=32,601 
89 FRAGuy SibilleFRAPeugeot-BP-Michelin06:50:57  +  00:14:06=32,194 

Withdrawls: 1
 
Rider
Team
Reason
28  ESPAntonio MenendezESPKas-KaskolDid not finish

Todays birthdays.

1887  Marcel Godivier
1895  Louis Thuayre
1896  Léon Devos
1932  Aniceto Utset
1935  Willy Altig
1939  Sebastián Elorza
1941  René Binggeli
1948  Gerard Moneyron
1953  Patrocinio Jiménez
1954  Pierre Bazzo
1955  Serge Beucherie
1967  Antonio Politano
1969  Sergio Barbero
1977  Luca Paolini
1980  Gregory Rast
1981  Christophe Riblon
1985  Sebastian Langeveld
1990  Johan Esteban Chaves




Visits: